Weather reports worldwide

Advertisment
Sa Pobla, Spain (8312): temperature & dewpoint: 19.09.2020 02:00:00 - 25.09.2020 02:00:00 (CEST)Sa Pobla, Spain (8312): wind speed & gusts: 19.09.2020 02:00:00 - 25.09.2020 02:00:00 (CEST)Sa Pobla, Spain (8312): wind direction: 19.09.2020 02:00:00 - 25.09.2020 02:00:00 (CEST)Sa Pobla, Spain (8312): reduced air pressure: 19.09.2020 02:00:00 - 25.09.2020 02:00:00 (CEST)Sa Pobla, Spain (8312): visibility: 19.09.2020 02:00:00 - 25.09.2020 02:00:00 (CEST)Sa Pobla, Spain (8312): sunshine duration: 19.09.2020 02:00:00 - 25.09.2020 02:00:00 (CEST)Sa Pobla, Spain (8312): precipitation: 19.09.2020 02:00:00 - 25.09.2020 02:00:00 (CEST)
Date & Time tt [°C] td [°C] ff [km/h] ff [kn] fx [km/h] fx [kn] dd ppp [hPa] vv [km] sd [min] rr [mm]
25.09.2020 02:00:00 - - - - - - - - - - -
25.09.2020 01:00:00 24,8 18,7 10 6 26 14 SSW 1011,2 20 0 0,0
25.09.2020 00:00:00 24,5 19,1 11 6 36 19 S 1012,0 20 0 0,0
24.09.2020 23:00:00 - - - - - - - - - - -
24.09.2020 22:00:00 - - - - - - - - - - -
24.09.2020 21:00:00 - - - - - - - - - - -
24.09.2020 20:00:00 26,1 15,8 11 6 36 20 SSW 1012,0 20 0 -
24.09.2020 19:00:00 - - - - - - - - - - -
24.09.2020 18:00:00 28,9 13,9 16 9 52 28 WSW 1011,6 20 60 0,0
24.09.2020 17:00:00 29,4 15,9 19 10 38 20 SSW 1011,5 20 60 0,0
24.09.2020 16:00:00 - - - - - - - - - - -
24.09.2020 15:00:00 30,4 16,8 18 10 40 22 SSW 1011,8 20 60 0,0
24.09.2020 14:00:00 29,7 16,8 17 9 44 24 SSW 1012,1 20 60 -
24.09.2020 13:00:00 29,7 14,6 16 9 38 20 SSW 1012,7 20 60 0,0
24.09.2020 12:00:00 28,7 17,9 14 8 31 17 SSW 1013,0 20 60 0,0
24.09.2020 11:00:00 27,4 20,0 12 7 23 13 SSW 1013,2 20 60 0,0
24.09.2020 10:00:00 24,9 22,2 9 5 21 11 SSW 1013,4 15 60 0,0
24.09.2020 09:00:00 21,6 20,8 7 4 16 9 SSW 1013,0 11 25 0,0
24.09.2020 08:00:00 19,8 19,1 5 3 8 5 SSW 1012,9 10 0 -
24.09.2020 07:00:00 19,3 18,3 3 2 9 5 ENE 1012,9 8 0 0,0
24.09.2020 06:00:00 - - - - - - - - - - -
24.09.2020 05:00:00 19,5 17,6 2 1 11 6 NW 1013,0 20 0 0,0
24.09.2020 04:00:00 - - - - - - - - - - -
24.09.2020 03:00:00 21,8 19,7 5 3 14 8 SW 1013,4 16 0 0,0
24.09.2020 02:00:00 21,7 20,0 8 5 18 10 SSW 1013,3 19 0 -
24.09.2020 01:00:00 21,7 20,0 4 2 10 6 S 1013,5 15 0 0,0
24.09.2020 00:00:00 - - - - - - - - - - -
23.09.2020 23:00:00 - - - - - - - - - - -
23.09.2020 22:00:00 - - - - - - - - - - -
23.09.2020 21:00:00 23,5 19,2 6 4 16 9 S 1012,6 20 0 0,0
23.09.2020 20:00:00 25,0 19,1 11 6 30 16 SSW 1012,1 20 14 -
23.09.2020 19:00:00 26,5 19,1 14 8 32 17 SSW 1012,0 20 60 0,0
23.09.2020 18:00:00 28,1 17,6 14 7 31 17 SSW 1011,6 20 58 0,0
23.09.2020 17:00:00 29,0 17,2 14 8 32 18 SSW 1011,7 20 60 0,0
23.09.2020 16:00:00 29,5 18,0 14 8 31 17 SSW 1011,9 20 60 0,0
23.09.2020 15:00:00 29,0 18,2 12 7 29 15 SW 1012,3 20 53 0,0
23.09.2020 14:00:00 28,4 19,3 13 7 27 15 SSW 1012,8 20 35 -
23.09.2020 13:00:00 28,2 18,6 14 8 30 16 SSW 1013,1 20 60 0,0
23.09.2020 12:00:00 27,8 19,6 12 7 26 14 SSW 1013,5 20 60 0,0
23.09.2020 11:00:00 26,0 20,5 9 5 23 13 SW 1013,6 20 52 0,0
23.09.2020 10:00:00 - - - - - - - - - - -
23.09.2020 09:00:00 20,9 19,6 3 2 9 5 S 1013,3 18 25 0,0
23.09.2020 08:00:00 20,1 18,9 6 4 12 6 S 1013,0 17 0 -
23.09.2020 07:00:00 20,0 18,8 6 3 12 6 SSE 1013,1 18 0 0,0
23.09.2020 06:00:00 20,4 19,1 8 4 13 7 SSE 1013,1 15 0 0,0
23.09.2020 05:00:00 - - - - - - - - - - -
23.09.2020 04:00:00 20,4 19,1 5 3 12 7 S 1013,7 20 0 0,0
23.09.2020 03:00:00 - - - - - - - - - - -
23.09.2020 02:00:00 20,9 19,3 8 5 16 9 S 1014,1 20 0 -
23.09.2020 01:00:00 - - - - - - - - - - -
23.09.2020 00:00:00 22,5 20,1 8 4 13 7 SSW 1014,6 20 0 0,0
22.09.2020 23:00:00 21,9 19,4 4 2 11 6 SW 1014,7 20 0 0,0
22.09.2020 22:00:00 22,6 19,3 7 4 12 7 S 1014,4 20 0 0,0
22.09.2020 21:00:00 23,1 19,3 1 1 16 9 S 1013,9 2,8 0 0,0
22.09.2020 20:00:00 24,5 18,7 5 3 16 9 SW 1013,4 20 3 -
22.09.2020 19:00:00 - - - - - - - - - - -
22.09.2020 18:00:00 24,7 18,6 8 5 27 15 N 1013,8 20 43 0,0
22.09.2020 17:00:00 - - - - - - - - - - -
22.09.2020 16:00:00 28,5 17,4 13 7 27 14 SSW 1014,2 20 53 0,0
22.09.2020 15:00:00 28,1 16,0 15 8 28 15 SSW 1015,1 20 33 0,0
22.09.2020 14:00:00 27,9 16,2 8 5 23 12 SW 1015,3 20 44 -
22.09.2020 13:00:00 26,6 17,4 5 3 13 7 E 1015,6 20 53 0,0
22.09.2020 12:00:00 25,7 18,8 5 3 10 5 ESE 1016,1 20 60 0,0
22.09.2020 11:00:00 24,9 18,6 4 2 9 5 S 1016,2 20 60 0,0
22.09.2020 10:00:00 - - - - - - - - - - -
22.09.2020 09:00:00 18,3 16,5 3 2 9 5 S 1015,8 20 49 0,0
22.09.2020 08:00:00 16,4 15,4 4 2 8 4 SSW 1015,5 19 0 -
22.09.2020 07:00:00 16,6 15,4 3 2 7 4 SSW 1015,5 20 0 0,0
22.09.2020 06:00:00 17,0 16,0 3 1 8 4 W 1015,5 4,7 0 0,0
22.09.2020 05:00:00 - - - - - - - - - - -
22.09.2020 04:00:00 - - - - - - - - - - -
22.09.2020 03:00:00 18,6 17,1 5 3 8 4 SW 1015,9 20 0 0,0
22.09.2020 02:00:00 19,0 17,0 4 2 8 4 SW 1016,3 20 0 -
22.09.2020 01:00:00 19,8 17,5 3 2 9 5 SW 1016,8 20 0 0,0
22.09.2020 00:00:00 19,6 17,5 3 2 9 5 S 1016,8 15 0 0,0
21.09.2020 23:00:00 20,4 17,8 3 2 8 4 SSW 1016,7 20 0 0,0
21.09.2020 22:00:00 20,7 17,5 2 1 10 5 S 1016,7 20 0 0,0
21.09.2020 21:00:00 22,1 17,9 2 1 5 3 N 1016,2 20 0 0,0
21.09.2020 20:00:00 24,2 17,0 3 1 9 5 NNE 1015,8 20 15 -
21.09.2020 19:00:00 26,2 16,7 4 2 13 7 WNW 1015,3 20 60 0,0
21.09.2020 18:00:00 26,2 15,9 5 3 18 10 NW 1015,5 20 57 0,0
21.09.2020 17:00:00 25,7 15,7 7 4 14 7 NW 1015,9 20 56 0,0
21.09.2020 16:00:00 25,6 14,7 9 5 35 19 N 1016,5 20 40 0,0
21.09.2020 15:00:00 23,5 17,2 22 12 40 22 NE 1016,9 20 8 0,0
21.09.2020 14:00:00 25,8 17,2 13 7 27 15 NE 1016,5 20 35 -
21.09.2020 13:00:00 - - - - - - - - - - -
21.09.2020 12:00:00 26,5 19,6 7 4 16 9 S 1017,1 20 55 0,0
21.09.2020 11:00:00 - - - - - - - - - - -
21.09.2020 10:00:00 23,4 17,6 4 2 11 6 S 1017,0 20 51 0,0
21.09.2020 09:00:00 19,3 16,1 6 4 11 6 S 1017,0 20 51 0,0
21.09.2020 08:00:00 16,4 15,1 5 3 9 5 S 1016,9 20 0 -
21.09.2020 07:00:00 16,9 15,3 4 2 10 6 S 1016,5 20 0 0,0
21.09.2020 06:00:00 17,4 15,3 6 3 10 6 SSW 1016,5 20 0 0,0
21.09.2020 05:00:00 17,2 15,5 6 3 9 5 S 1016,7 20 0 0,0
21.09.2020 04:00:00 17,8 15,6 2 1 9 5 NE 1017,0 20 0 0,0
21.09.2020 03:00:00 18,1 15,9 6 3 9 5 SSW 1017,5 20 0 0,0
21.09.2020 02:00:00 18,7 16,1 4 2 6 4 SW 1017,5 20 0 -
21.09.2020 01:00:00 18,6 16,4 1 1 6 3 SE 1017,5 20 0 0,0
21.09.2020 00:00:00 - - - - - - - - - - -
20.09.2020 23:00:00 - - - - - - - - - - -
20.09.2020 22:00:00 21,7 16,6 2 1 13 7 SW 1017,1 20 0 0,0
20.09.2020 21:00:00 23,5 16,6 6 4 13 7 S 1016,4 20 0 0,0
20.09.2020 20:00:00 23,5 15,8 6 4 13 7 SE 1016,1 20 21 -
20.09.2020 19:00:00 25,0 16,4 5 3 14 8 E 1015,9 20 4 0,0
20.09.2020 18:00:00 25,4 17,1 8 4 16 9 E 1015,6 20 0 0,0
20.09.2020 17:00:00 - - - - - - - - - - -
20.09.2020 16:00:00 - - - - - - - - - - -
20.09.2020 15:00:00 29,1 15,6 11 6 28 15 E 1015,9 20 56 0,0
20.09.2020 14:00:00 29,9 14,0 11 6 28 15 SSW 1016,1 20 60 -
20.09.2020 13:00:00 29,3 12,2 8 4 21 11 S 1016,4 20 60 0,0
20.09.2020 12:00:00 - - - - - - - - - - -
20.09.2020 11:00:00 - - - - - - - - - - -
20.09.2020 10:00:00 - - - - - - - - - - -
20.09.2020 09:00:00 21,7 18,3 4 2 10 5 S 1016,3 20 56 0,0
20.09.2020 08:00:00 19,4 17,5 3 2 11 6 SW 1015,9 20 0 -
20.09.2020 07:00:00 20,2 17,9 7 4 17 9 SSW 1015,4 20 0 0,0
20.09.2020 06:00:00 20,9 18,1 10 5 16 9 S 1014,9 20 0 0,0
20.09.2020 05:00:00 - - - - - - - - - - -
20.09.2020 04:00:00 - - - - - - - - - - -
20.09.2020 03:00:00 20,4 18,2 6 3 11 6 S 1016,1 20 0 0,0
20.09.2020 02:00:00 20,8 18,2 8 5 15 8 S 1016,4 20 0 -
20.09.2020 01:00:00 21,5 18,3 8 4 18 10 SSW 1016,5 20 0 0,0
20.09.2020 00:00:00 - - - - - - - - - - -
19.09.2020 23:00:00 - - - - - - - - - - -
19.09.2020 22:00:00 22,6 16,8 6 4 13 7 SSE 1016,0 20 0 0,0
19.09.2020 21:00:00 23,1 16,6 7 4 17 9 S 1015,2 20 0 0,0
19.09.2020 20:00:00 24,9 16,3 10 5 25 13 SSW 1014,8 20 23 -
19.09.2020 19:00:00 26,7 16,0 14 7 37 20 SSW 1014,4 20 60 0,0
19.09.2020 18:00:00 28,1 13,9 16 9 35 19 S 1014,0 20 60 0,0
19.09.2020 17:00:00 29,8 12,6 16 9 38 20 SSW 1013,9 20 60 0,0
19.09.2020 16:00:00 - - - - - - - - - - -
19.09.2020 15:00:00 30,6 16,2 13 7 36 20 SSW 1014,2 20 60 0,0
19.09.2020 14:00:00 31,0 18,0 13 7 34 19 SW 1014,6 20 60 -
19.09.2020 13:00:00 - - - - - - - - - - -
19.09.2020 12:00:00 28,4 21,2 9 5 21 11 SSW 1015,1 20 45 0,0
19.09.2020 11:00:00 26,9 22,3 8 4 14 7 S 1015,3 12 60 0,0
19.09.2020 10:00:00 24,6 20,9 4 2 7 4 SSW 1015,1 18 58 0,0
19.09.2020 09:00:00 21,0 19,1 5 3 8 5 SSW 1015,4 12 15 0,0
19.09.2020 08:00:00 19,5 18,2 5 3 8 4 SSE 1015,5 13 0 -
19.09.2020 07:00:00 19,9 18,4 3 2 8 4 SW 1015,3 14 0 0,0
19.09.2020 06:00:00 20,6 19,4 5 3 10 5 SW 1015,4 8 0 0,0
19.09.2020 05:00:00 - - - - - - - - - - -
19.09.2020 04:00:00 - - - - - - - - - - -
19.09.2020 03:00:00 21,6 20,3 4 2 12 6 SSW 1018,2 9 0 0,0
19.09.2020 02:00:00 21,8 20,6 3 2 9 5 NNW 1017,6 6 0 -

tt = temperature
td = dewpoint
ff = wind speed
fx = gusts
dd = wind direction
ppp = reduced air pressure
vv = visibility
sd = sunshine duration
rr = precipitation

Next stations